Location: Unspecified
(37.6100°N, 2.7800°W)
Time: 07:47:22
(UTC+00:00)

ISS - Visible Passes

Search period start: 22 September 2017 00:00
Search period end: 02 October 2017 00:00
Orbit: 401 x 407 km, 51.6° (Epoch: 22 September)

Date Brightness Start Highest point End Pass type
(mag) Time Alt. Az. Time Alt. Az. Time Alt. Az.
22 Sep -0.8 03:43:24 12° ESE 03:43:24 12° ESE 03:43:44 10° ESE visible
22 Sep -1.7 05:16:09 12° WSW 05:16:35 12° SW 05:17:51 10° SSW visible
23 Sep -2.1 19:23:49 10° S 19:25:23 20° SSE 19:25:23 20° SSE visible
24 Sep -1.7 18:32:56 10° SSE 18:34:26 13° SE 18:35:56 10° E visible
24 Sep -1.8 20:07:19 10° WSW 20:08:55 25° WSW 20:08:55 25° WSW visible
25 Sep -3.9 19:14:58 10° SW 19:18:12 70° SE 19:19:29 33° ENE visible
26 Sep -3.0 18:23:00 10° SSW 18:25:57 32° SE 18:28:55 10° ENE visible
26 Sep -1.8 19:59:38 10° W 20:02:26 25° NNW 20:02:32 25° NNW visible
27 Sep -2.8 19:06:49 10° WSW 19:09:57 44° NW 19:12:41 13° NE visible
28 Sep -1.1 19:52:27 10° WNW 19:54:25 15° NNW 19:55:19 14° N visible
29 Sep -1.5 18:59:11 10° W 19:01:48 22° NNW 19:04:27 10° NNE visible
01 Oct -1.0 18:52:05 10° NW 18:53:45 13° NNW 18:55:26 10° N visible
